Regional Weather Roundup
Issued by NWS

Home | Current Version | Previous Version | Text Only | Print | Product List | Glossary Off
Versions: 1 2 3 4 5 6 7 8 9 10 11 12 13 14 15 16 17 18 19 20 21 22 23 24 25 26 27 28 29 30 31 32 33 34 35 36 37 38 39 40 41 42 43 44 45 46 47 48 49 50

000
ASUS43 KLOT 041903
RWRIL

ILLINOIS REGIONAL WEATHER ROUNDUP
NATIONAL WEATHER SERVICE CHICAGO/ROMEOVILLE IL
200 PM CDT WED MAY 04 2016

NOTE: "FAIR" INDICATES FEW OR NO CLOUDS BELOW 12,000 FEET WITH NO
SIGNIFICANT WEATHER AND/OR OBSTRUCTIONS TO VISIBILITY.

* THESE STATIONS ARE NOT UNDER NWS QUALITY CONTROL. THEY ALSO MAY NOT
  REPORT WEATHER SUCH AS PRECIPITATION OR FOG.

ILZ001-002-007-009-015-016-024-042000-
NORTHWEST ILLINOIS

CITY           SKY/WX    TMP DP  RH WIND       PRES   REMARKS
MOLINE         MOSUNNY   62  35  36 N14G25    29.85F
STERLING*      PTSUNNY   61  41  48 N17       29.83S
$$

ILZ003-004-008-010-011-017-018-042000-
NORTH CENTRAL ILLINOIS

CITY           SKY/WX    TMP DP  RH WIND       PRES   REMARKS
ROCKFORD       CLOUDY    54  37  52 N18G26    29.83S
FREEPORT*      PTSUNNY   57  37  46 N14       29.83S
DE KALB*       CLOUDY    50  40  68 N18       29.82S
$$

ILZ005-006-012>014-019>023-042000-
NORTHEAST ILLINOIS

CITY           SKY/WX    TMP DP  RH WIND       PRES   REMARKS
CHICAGO-OHARE  CLOUDY    50  37  61 N17       29.79R
CHICAGO-MIDWAY CLOUDY    50  36  58 N9        29.79R
AURORA         CLOUDY    54  42  64 N17       29.81S
LANSING*       CLOUDY    47  37  68 N17G23    29.79R
WAUKEGAN       CLOUDY    46  38  73 N13       29.79R
DUPAGE AIRPORT CLOUDY    51  37  58 N17G29    29.79S
WHEELING       CLOUDY    49  36  61 NW17G23   29.80S
NORTHERLY ISL    N/A     45  37  73 N17         N/A
NORTHERLY ISL    N/A     45  37  73 N17         N/A
$$

LMZ740>746-042000-
SOUTHERN LAKE MICHIGAN

STATION/POSITION SKY/WX   TEMP    WIND        PRES    VSBY  WAVE
                          AIR SEA DIR/SP/G                  HT/PER
                          (F)     (DEG/KT/KT) (MB)    (MI)  (FT/S)
SOUTHERN BUOY              41 40  360/ 25/ 31 1007.1          8/ 7
WILMETTE HARBOR            43 44   40/ 14/ 19   N/A           5/ 6
HARRISON CRIB              45     360/ 22/ 26   N/A
BURNHAM HARBOR             45     350/ 13/ 16   N/A
CALUMET HARBOR             46     330/ 18/ 22 1008.3R
BURNS HARBOR               44     340/ 21     1008.8R
MICHIGAN CITY              43     330/ 33/ 35   N/A
ST. JOSEPH                 42 47                N/A          10/ 7
$$

ILZ025>027-034>036-040-047-049-050-058-095>099-042000-
WEST-CENTRAL ILLINOIS

CITY           SKY/WX    TMP DP  RH WIND       PRES   REMARKS
QUINCY         PTSUNNY   63  40  42 N16G29    29.88S
MACOMB*        PTSUNNY   60  37  41 N23G31    29.89R
$$

ILZ028>032-037-038-041>044-048-051>054-059>061-042000-
CENTRAL ILLINOIS

CITY           SKY/WX    TMP DP  RH WIND       PRES   REMARKS
BLOOMINGTON    PTSUNNY   55  41  59 N22G29    29.82S
DECATUR        PTSUNNY   59  42  53 NW18G33   29.81R
PEORIA         CLOUDY    56  37  49 N12G29    29.84S
SPRINGFIELD    CLOUDY    62  42  47 N14G23    29.84S
TAYLORVILLE    NOT AVBL
$$

ILZ033-039-045-046-055>057-062-063-042000-
EAST-CENTRAL ILLINOIS

CITY           SKY/WX    TMP DP  RH WIND       PRES   REMARKS
CHAMPAIGN      MOSUNNY   59  40  49 NW25      29.77S
MATTOON        PTSUNNY   58  42  55 N18G28    29.77R
$$

ILZ079-100>102-042000-
SOUTHWEST ILLINOIS

CITY           SKY/WX    TMP DP  RH WIND       PRES   REMARKS
ALTON          PTSUNNY   64  39  39 N17G25    29.83S
CAHOKIA*       PTSUNNY   66  40  38 N21G31    29.82S
SPARTA*        PTSUNNY   64  43  47 N13G20    29.82S
$$

ILZ064>066-069>071-074>076-080>082-084>086-088>090-092>094-042000-
SOUTH-CENTRAL ILLINOIS

CITY           SKY/WX    TMP DP  RH WIND       PRES   REMARKS
CARBONDALE     MOSUNNY   68  42  38 N18G30    29.79R
MARION         PTSUNNY   68  43  40 N14G21    29.79R
MT. VERNON     PTSUNNY   64  43  45 N13G18    29.80R
SALEM*         MOSUNNY   65  43  45 N18       29.80R
$$

ILZ067-068-072-073-078-083-087-091-042000-
SOUTHEAST ILLINOIS

CITY           SKY/WX    TMP DP  RH WIND       PRES   REMARKS
LAWRENCEVILLE  PTSUNNY   62  43  49 NW22G29   29.75R
FLORA*         PTSUNNY   62  42  46 NW15G22   29.79R
HARRISBURG*    PTSUNNY   66  45  46 N15G23    29.77R
ROBINSON*      MOSUNNY   60  45  57 N15G23    29.76S
$$

ABBREVIATIONS USED IN REMARKS
   TC - TEMPERATURE IN CELSIUS
  WCI - WIND CHILL INDEX
   HX - HEAT INDEX
  VSB - VISIBILITY
$$




USA.gov is the U.S. government's official web portal to all federal, state and local government web resources and services.